SKYSAT-C11

Last updated on Sun Nov 09 2025 00:02:32 GMT+0000 (Coordinated Universal Time)

1 42987U 17068A 25312.38506891 .00027842 00000+0 58247-3 0 9996 2 42987 97.4133 89.0852 0000449 102.1994 257.9305 15.45435467449006
UTC large
Height (km)
Speed (km/s)
/
Latitude / Longitude
Inclination (degrees)
Orbital Period (minutes)
Azimuth
Elevation
Range (km)
Doppler Factor

Next 0 passes for location: London (51.5072 / 0.1276)

Sorry there are no passes over London.